GFSWCAN_prec_precacc_147.txt.gz
Total_Precipitation_Accumulation
1.24 1.28 1.43 1.23 0.96 0.66 0.64 0.66 1.09 1.54 1.36 1.22 1.23 0.92 0.87 0.58 0.46 0.46 0.27 0.32 0.47 0.25 0.01 0.00 0.00 0.08 0.38 0.35 0.27 0.34 0.44 0.34 0.43 0.46 0.32 0.14 0.04 0.01 0.00 0.00 0.00 0.04 0.08 0.10 0.15 0.19 0.02 0.00 0.00 0.01 0.01 0.00 0.00 0.01
1.15 1.18 1.14 1.10 1.16 1.26 0.87 0.83 1.11 1.36 1.13 0.93 0.78 0.67 0.65 0.53 0.46 0.57 0.37 0.24 0.36 0.26 0.04 0.00 0.00 0.01 0.20 0.33 0.37 0.34 0.39 0.31 0.40 0.40 0.26 0.11 0.04 0.02 0.01 0.01 0.00 0.00 0.01 0.00 0.00 0.00 0.00 0.00 0.00 0.00 0.00 0.00 0.00 0.00
1.39 1.21 1.08 0.94 0.72 0.85 1.32 1.49 1.35 1.22 0.91 0.74 0.58 0.51 0.55 0.51 0.47 0.63 0.38 0.27 0.33 0.30 0.08 0.02 0.02 0.00 0.08 0.20 0.35 0.35 0.35 0.30 0.40 0.31 0.40 0.23 0.11 0.02 0.01 0.00 0.00 0.00 0.00 0.00 0.00 0.00 0.00 0.00 0.00 0.00 0.00 0.00 0.00 0.00
1.42 1.13 0.95 1.01 0.99 0.65 0.84 1.48 1.59 1.30 0.96 0.62 0.42 0.41 0.34 0.39 0.49 0.63 0.23 0.16 0.30 0.45 0.29 0.07 0.03 0.01 0.04 0.19 0.29 0.32 0.44 0.36 0.37 0.49 0.51 0.47 0.22 0.05 0.02 0.00 0.00 0.00 0.00 0.00 0.00 0.00 0.00 0.00 0.00 0.00 0.00 0.00 0.00 0.00
1.32 1.41 1.04 0.78 0.94 1.13 0.87 0.99 1.05 1.01 0.91 0.49 0.32 0.37 0.35 0.39 0.51 0.38 0.15 0.16 0.21 0.49 0.53 0.26 0.09 0.02 0.01 0.16 0.33 0.37 0.50 0.71 0.65 0.76 0.64 0.33 0.16 0.07 0.04 0.03 0.01 0.00 0.00 0.00 0.00 0.00 0.00 0.00 0.00 0.00 0.00 0.00 0.00 0.00
1.12 1.21 1.54 1.11 0.77 0.85 1.15 1.00 1.01 0.88 0.75 0.43 0.42 0.51 0.54 0.49 0.82 0.60 0.69 0.45 0.29 0.44 1.00 0.69 0.35 0.15 0.06 0.16 0.37 0.52 0.51 0.56 0.84 0.86 0.63 0.35 0.14 0.23 0.38 0.10 0.00 0.00 0.00 0.00 0.00 0.00 0.00 0.00 0.00 0.00 0.00 0.00 0.00 0.00
0.96 0.95 1.22 1.51 1.11 0.92 1.28 1.04 1.00 0.92 0.79 0.55 0.58 0.62 0.54 0.64 0.76 0.62 0.53 0.51 0.54 0.64 1.07 0.86 0.82 0.41 0.21 0.31 0.57 0.64 0.66 0.72 0.79 1.06 0.63 0.35 0.24 0.43 0.54 0.13 0.00 0.00 0.00 0.00 0.00 0.00 0.00 0.00 0.00 0.00 0.00 0.00 0.00 0.00
1.05 0.94 0.96 1.28 1.22 1.11 1.27 1.11 0.91 0.87 0.76 0.62 0.65 0.64 0.74 1.12 1.12 0.76 0.23 0.42 0.66 0.92 1.05 1.02 0.94 0.56 0.44 0.46 0.69 0.74 0.67 0.69 0.78 0.92 0.56 0.30 0.36 0.52 0.37 0.01 0.00 0.01 0.01 0.01 0.01 0.01 0.00 0.00 0.00 0.01 0.02 0.01 0.00 0.00
1.17 1.03 1.02 1.24 1.07 1.11 1.26 1.41 1.01 0.83 0.81 0.84 1.10 1.33 1.54 1.32 0.67 0.30 0.30 0.56 0.71 1.04 1.31 0.80 0.46 0.46 0.50 0.35 0.51 0.50 0.66 0.76 0.69 0.48 0.51 0.45 0.32 0.31 0.12 0.02 0.00 0.00 0.00 0.00 0.00 0.00 0.00 0.00 0.00 0.00 0.00 0.01 0.02 0.04
1.24 1.11 1.01 1.33 0.97 0.99 1.19 1.38 1.20 0.99 1.09 1.65 1.85 1.70 1.35 0.64 0.50 0.90 1.53 1.80 1.92 1.26 0.94 0.62 0.29 0.22 0.45 0.32 0.47 0.60 0.49 0.49 0.46 0.19 0.29 0.47 0.24 0.09 0.06 0.01 0.00 0.00 0.00 0.01 0.01 0.00 0.01 0.02 0.02 0.01 0.02 0.01 0.02 0.03
1.19 1.20 1.04 1.41 0.95 0.99 1.16 1.40 1.42 1.60 2.30 2.51 2.14 1.53 0.96 0.86 1.52 2.18 2.27 1.64 1.11 0.72 0.30 0.18 0.26 0.23 0.25 0.35 0.51 0.57 0.72 0.47 0.41 0.14 0.28 0.38 0.18 0.09 0.06 0.03 0.01 0.00 0.01 0.01 0.01 0.03 0.05 0.05 0.05 0.04 0.05 0.06 0.05 0.04
1.24 1.19 1.16 1.48 0.97 0.94 1.06 1.45 1.70 2.19 2.49 2.09 1.67 1.73 2.25 2.52 2.77 2.42 1.71 0.73 0.41 0.12 0.14 0.16 0.13 0.24 0.26 0.29 0.51 0.81 0.68 0.68 0.35 0.23 0.43 0.13 0.03 0.01 0.02 0.05 0.09 0.07 0.05 0.04 0.03 0.03 0.07 0.16 0.20 0.19 0.16 0.13 0.10 0.08
1.48 1.23 1.30 1.56 1.11 1.03 1.11 1.37 1.42 2.04 2.28 2.57 2.77 3.10 2.88 2.54 2.23 1.41 0.57 0.25 0.19 0.13 0.18 0.15 0.12 0.14 0.19 0.34 0.76 0.94 0.83 0.42 0.21 0.31 0.14 0.00 0.01 0.05 0.09 0.05 0.02 0.03 0.04 0.13 0.23 0.29 0.24 0.20 0.15 0.18 0.27 0.23 0.19 0.13
1.66 1.38 1.53 1.70 1.36 1.35 1.41 1.42 1.97 2.70 2.93 3.62 3.52 3.16 1.86 1.33 0.50 0.18 0.11 0.11 0.07 0.08 0.10 0.13 0.18 0.17 0.19 0.48 0.60 0.62 0.39 0.38 0.41 0.17 0.03 0.03 0.05 0.12 0.09 0.08 0.05 0.02 0.01 0.06 0.10 0.16 0.21 0.23 0.24 0.21 0.21 0.22 0.20 0.20
1.84 1.86 2.29 2.28 1.89 1.83 1.61 1.65 2.52 3.14 3.49 3.35 2.89 1.76 0.90 0.32 0.11 0.12 0.12 0.07 0.08 0.10 0.13 0.17 0.34 0.40 0.53 0.84 0.62 0.55 0.58 0.30 0.06 0.01 0.04 0.09 0.19 0.28 0.23 0.18 0.13 0.08 0.05 0.06 0.05 0.12 0.19 0.06 0.04 0.12 0.22 0.24 0.16 0.12
2.32 2.98 3.19 2.55 2.21 2.17 2.08 2.34 3.24 3.80 4.07 3.38 2.56 1.25 0.39 0.09 0.05 0.06 0.08 0.09 0.09 0.15 0.22 0.44 0.72 0.77 0.73 0.67 0.70 0.46 0.41 0.14 0.10 0.18 0.27 0.30 0.44 0.47 0.40 0.24 0.12 0.07 0.04 0.07 0.19 0.33 0.20 0.04 0.01 0.02 0.06 0.19 0.18 0.17
3.31 3.42 2.58 1.97 2.21 2.66 2.79 3.61 4.48 4.63 4.36 3.46 1.52 0.47 0.17 0.05 0.04 0.06 0.05 0.06 0.12 0.33 0.50 0.90 1.15 0.51 0.45 0.63 0.23 0.09 0.11 0.08 0.20 0.31 0.33 0.34 0.33 0.22 0.10 0.04 0.01 0.02 0.04 0.03 0.06 0.16 0.18 0.12 0.04 0.02 0.03 0.02 0.02 0.03
2.70 1.93 1.59 2.00 3.01 3.92 5.08 4.71 4.48 4.28 3.16 1.53 0.47 0.11 0.02 0.01 0.03 0.07 0.06 0.08 0.18 0.37 0.50 0.97 0.94 1.00 0.78 0.45 0.16 0.07 0.05 0.06 0.07 0.07 0.12 0.13 0.08 0.03 0.01 0.01 0.00 0.00 0.02 0.02 0.04 0.07 0.05 0.03 0.02 0.03 0.05 0.05 0.05 0.03
1.69 1.38 1.63 2.19 2.84 3.94 4.69 4.50 3.61 2.99 1.37 0.46 0.11 0.03 0.03 0.02 0.03 0.06 0.06 0.06 0.12 0.27 0.63 0.92 1.13 0.73 0.17 0.05 0.02 0.02 0.02 0.02 0.01 0.01 0.02 0.01 0.00 0.00 0.00 0.00 0.00 0.00 0.00 0.00 0.01 0.01 0.00 0.01 0.00 0.01 0.01 0.01 0.01 0.01
2.29 2.15 1.99 2.28 2.57 3.99 4.44 3.76 2.61 1.40 0.66 0.22 0.09 0.08 0.04 0.05 0.07 0.09 0.10 0.12 0.19 0.68 1.29 1.09 0.41 0.07 0.04 0.03 0.03 0.02 0.00 0.00 0.00 0.00 0.00 0.00 0.00 0.00 0.00 0.00 0.00 0.00 0.00 0.00 0.00 0.00 0.00 0.00 0.00 0.00 0.00 0.00 0.00 0.01
4.44 3.96 3.79 4.12 4.88 5.20 4.12 2.41 1.62 1.03 0.50 0.25 0.17 0.19 0.17 0.11 0.19 0.26 0.34 0.43 1.00 1.41 0.88 0.27 0.08 0.06 0.06 0.06 0.05 0.03 0.01 0.00 0.00 0.00 0.00 0.00 0.00 0.00 0.00 0.00 0.00 0.00 0.00 0.00 0.00 0.00 0.00 0.00 0.00 0.00 0.00 0.00 0.01 0.02
4.59 4.43 5.37 5.30 5.47 5.16 3.92 2.17 1.13 0.73 0.58 0.50 0.34 0.32 0.44 0.36 0.34 0.48 0.70 1.08 1.22 0.63 0.20 0.09 0.12 0.10 0.07 0.06 0.06 0.05 0.04 0.01 0.00 0.00 0.00 0.00 0.00 0.00 0.00 0.00 0.00 0.00 0.00 0.00 0.00 0.00 0.00 0.00 0.00 0.00 0.00 0.00 0.00 0.00
3.68 3.90 4.18 4.25 4.42 3.86 2.79 1.30 0.94 0.76 0.58 0.49 0.41 0.57 0.58 0.45 0.50 0.65 1.04 0.93 0.51 0.23 0.18 0.19 0.20 0.16 0.13 0.07 0.07 0.04 0.05 0.06 0.03 0.01 0.00 0.00 0.00 0.00 0.00 0.00 0.00 0.00 0.00 0.00 0.00 0.00 0.00 0.00 0.00 0.00 0.00 0.00 0.01 0.01
4.17 4.72 4.70 4.33 3.17 2.50 1.86 1.34 0.85 0.59 0.64 0.59 0.57 0.56 0.50 0.42 0.61 0.79 0.64 0.19 0.15 0.20 0.28 0.31 0.28 0.19 0.15 0.13 0.12 0.12 0.10 0.09 0.08 0.07 0.04 0.02 0.01 0.00 0.00 0.00 0.01 0.01 0.00 0.00 0.00 0.00 0.00 0.01 0.02 0.03 0.04 0.05 0.05 0.04
6.52 6.47 4.13 3.59 2.33 1.30 0.76 0.54 0.46 0.33 0.30 0.25 0.33 0.42 0.41 0.48 0.59 0.54 0.24 0.12 0.19 0.28 0.31 0.28 0.23 0.20 0.15 0.13 0.13 0.13 0.15 0.18 0.13 0.12 0.15 0.15 0.08 0.04 0.03 0.02 0.01 0.01 0.01 0.01 0.01 0.01 0.02 0.03 0.05 0.08 0.09 0.08 0.07 0.07
4.66 3.25 2.55 1.25 0.71 0.30 0.27 0.24 0.18 0.13 0.14 0.24 0.33 0.34 0.40 0.48 0.55 0.37 0.12 0.13 0.25 0.36 0.37 0.31 0.22 0.17 0.16 0.16 0.14 0.15 0.11 0.15 0.17 0.20 0.24 0.27 0.24 0.20 0.12 0.06 0.04 0.03 0.02 0.05 0.08 0.09 0.08 0.08 0.08 0.10 0.11 0.11 0.14 0.18
2.83 1.87 0.93 0.32 0.11 0.05 0.06 0.07 0.07 0.09 0.21 0.30 0.28 0.28 0.41 0.69 0.43 0.16 0.11 0.17 0.26 0.35 0.44 0.44 0.29 0.22 0.19 0.20 0.22 0.24 0.22 0.22 0.22 0.18 0.24 0.33 0.32 0.27 0.26 0.20 0.12 0.08 0.11 0.17 0.17 0.15 0.14 0.15 0.16 0.16 0.20 0.23 0.23 0.24
1.11 0.36 0.31 0.23 0.09 0.05 0.07 0.11 0.13 0.14 0.14 0.11 0.13 0.26 0.38 0.28 0.11 0.10 0.15 0.24 0.33 0.40 0.47 0.49 0.39 0.31 0.29 0.27 0.28 0.31 0.32 0.32 0.35 0.37 0.42 0.46 0.45 0.40 0.34 0.36 0.41 0.42 0.39 0.37 0.33 0.33 0.31 0.27 0.27 0.27 0.28 0.29 0.29 0.32
0.45 0.26 0.13 0.15 0.18 0.21 0.18 0.12 0.11 0.08 0.03 0.04 0.07 0.11 0.08 0.05 0.08 0.12 0.19 0.28 0.36 0.41 0.43 0.42 0.42 0.38 0.36 0.35 0.39 0.46 0.45 0.39 0.32 0.32 0.25 0.25 0.32 0.44 0.49 0.48 0.57 0.64 0.58 0.61 0.59 0.50 0.44 0.42 0.42 0.42 0.42 0.42 0.38 0.40
0.29 0.17 0.15 0.13 0.13 0.15 0.11 0.06 0.05 0.05 0.05 0.04 0.03 0.04 0.05 0.08 0.14 0.19 0.24 0.30 0.37 0.42 0.47 0.46 0.43 0.43 0.43 0.42 0.43 0.46 0.48 0.47 0.44 0.29 0.22 0.19 0.23 0.38 0.54 0.59 0.60 0.62 0.66 0.62 0.61 0.69 0.70 0.67 0.66 0.62 0.56 0.52 0.49 0.46
0.18 0.15 0.14 0.16 0.18 0.17 0.17 0.19 0.19 0.14 0.13 0.13 0.11 0.10 0.09 0.12 0.16 0.20 0.24 0.28 0.34 0.40 0.45 0.47 0.47 0.48 0.48 0.50 0.49 0.46 0.47 0.51 0.56 0.54 0.43 0.45 0.55 0.61 0.62 0.65 0.68 0.68 0.65 0.58 0.53 0.51 0.48 0.47 0.44 0.43 0.45 0.46 0.45 0.43
0.29 0.23 0.14 0.18 0.27 0.32 0.32 0.31 0.27 0.23 0.24 0.19 0.19 0.18 0.16 0.14 0.14 0.16 0.19 0.24 0.30 0.34 0.39 0.41 0.37 0.39 0.42 0.43 0.48 0.53 0.48 0.50 0.59 0.59 0.55 0.54 0.55 0.51 0.51 0.58 0.63 0.61 0.61 0.58 0.51 0.49 0.48 0.51 0.56 0.55 0.55 0.51 0.46 0.41
0.46 0.37 0.30 0.28 0.34 0.39 0.36 0.33 0.44 0.42 0.33 0.26 0.21 0.17 0.14 0.11 0.10 0.11 0.14 0.18 0.24 0.30 0.33 0.38 0.42 0.45 0.48 0.50 0.54 0.59 0.63 0.64 0.61 0.61 0.64 0.59 0.53 0.54 0.53 0.53 0.52 0.52 0.50 0.51 0.53 0.60 0.63 0.61 0.58 0.55 0.54 0.50 0.44 0.40

GFSWCAN_prec_precacc_153.txt.gz
Total_Precipitation_Accumulation
1.25 1.28 1.43 1.23 0.96 0.66 0.64 0.66 1.09 1.54 1.36 1.22 1.23 0.92 0.87 0.58 0.46 0.46 0.27 0.32 0.47 0.25 0.01 0.00 0.00 0.08 0.38 0.35 0.27 0.34 0.44 0.34 0.43 0.46 0.32 0.14 0.04 0.01 0.00 0.00 0.00 0.04 0.08 0.10 0.15 0.19 0.02 0.00 0.00 0.01 0.01 0.00 0.00 0.01
1.15 1.19 1.15 1.11 1.16 1.26 0.87 0.83 1.11 1.36 1.13 0.94 0.78 0.67 0.65 0.54 0.47 0.58 0.39 0.24 0.36 0.26 0.04 0.00 0.00 0.01 0.20 0.33 0.37 0.34 0.39 0.31 0.40 0.40 0.26 0.11 0.04 0.02 0.01 0.01 0.00 0.00 0.01 0.00 0.00 0.00 0.00 0.00 0.00 0.00 0.00 0.00 0.00 0.00
1.43 1.28 1.15 1.01 0.78 0.91 1.36 1.51 1.35 1.23 0.91 0.74 0.58 0.51 0.55 0.51 0.47 0.64 0.39 0.27 0.34 0.30 0.08 0.02 0.02 0.00 0.08 0.20 0.35 0.35 0.35 0.30 0.40 0.31 0.40 0.23 0.11 0.02 0.01 0.00 0.00 0.00 0.00 0.00 0.00 0.00 0.00 0.00 0.00 0.00 0.00 0.00 0.00 0.00
1.46 1.18 1.02 1.10 1.10 0.77 0.94 1.55 1.64 1.33 0.98 0.63 0.42 0.41 0.34 0.39 0.50 0.64 0.25 0.17 0.31 0.47 0.30 0.07 0.03 0.01 0.04 0.19 0.29 0.32 0.44 0.36 0.37 0.49 0.51 0.47 0.23 0.05 0.02 0.00 0.00 0.00 0.00 0.00 0.00 0.00 0.00 0.00 0.00 0.00 0.00 0.00 0.00 0.00
1.34 1.44 1.09 0.86 1.02 1.20 0.92 1.04 1.08 1.03 0.92 0.49 0.32 0.37 0.35 0.39 0.51 0.38 0.17 0.18 0.25 0.54 0.57 0.26 0.09 0.02 0.01 0.16 0.33 0.37 0.50 0.71 0.65 0.77 0.66 0.35 0.17 0.07 0.04 0.03 0.01 0.00 0.00 0.00 0.00 0.00 0.00 0.00 0.00 0.00 0.00 0.00 0.00 0.00
1.14 1.22 1.54 1.12 0.78 0.87 1.16 1.01 1.02 0.88 0.75 0.43 0.42 0.51 0.54 0.49 0.82 0.60 0.70 0.46 0.29 0.45 1.03 0.70 0.35 0.15 0.06 0.16 0.37 0.52 0.51 0.57 0.85 0.87 0.64 0.36 0.14 0.24 0.40 0.12 0.00 0.00 0.00 0.00 0.00 0.00 0.00 0.00 0.00 0.00 0.00 0.00 0.00 0.00
0.97 0.97 1.25 1.53 1.12 0.93 1.28 1.04 1.00 0.92 0.79 0.55 0.58 0.62 0.54 0.64 0.76 0.62 0.53 0.52 0.54 0.66 1.10 0.87 0.82 0.41 0.21 0.31 0.57 0.64 0.66 0.73 0.80 1.08 0.65 0.36 0.24 0.46 0.59 0.14 0.00 0.00 0.00 0.00 0.00 0.00 0.00 0.00 0.00 0.00 0.00 0.00 0.00 0.00
1.05 0.94 0.97 1.29 1.23 1.12 1.27 1.11 0.91 0.87 0.76 0.62 0.65 0.64 0.74 1.12 1.12 0.76 0.23 0.42 0.66 0.93 1.06 1.02 0.94 0.56 0.44 0.46 0.69 0.74 0.68 0.70 0.78 0.92 0.57 0.31 0.37 0.55 0.41 0.01 0.00 0.01 0.01 0.01 0.01 0.01 0.00 0.00 0.00 0.01 0.02 0.01 0.00 0.00
1.17 1.03 1.02 1.25 1.07 1.11 1.26 1.41 1.01 0.83 0.81 0.84 1.10 1.33 1.54 1.32 0.67 0.30 0.30 0.56 0.71 1.04 1.32 0.80 0.46 0.46 0.50 0.35 0.51 0.50 0.66 0.77 0.70 0.50 0.53 0.47 0.36 0.34 0.13 0.02 0.00 0.00 0.00 0.00 0.00 0.00 0.00 0.00 0.00 0.00 0.00 0.01 0.02 0.04
1.25 1.11 1.02 1.33 0.98 0.99 1.20 1.38 1.20 0.99 1.09 1.65 1.85 1.70 1.35 0.64 0.50 0.90 1.54 1.80 1.93 1.26 0.94 0.62 0.29 0.22 0.45 0.32 0.47 0.60 0.49 0.49 0.47 0.20 0.30 0.52 0.26 0.09 0.06 0.01 0.00 0.00 0.00 0.01 0.01 0.00 0.01 0.02 0.02 0.01 0.02 0.01 0.02 0.03
1.21 1.21 1.05 1.41 0.95 1.00 1.17 1.41 1.42 1.60 2.30 2.51 2.14 1.53 0.96 0.86 1.52 2.19 2.28 1.65 1.12 0.73 0.31 0.18 0.26 0.23 0.26 0.35 0.53 0.58 0.73 0.48 0.42 0.14 0.29 0.39 0.18 0.09 0.06 0.03 0.01 0.00 0.01 0.01 0.01 0.03 0.05 0.05 0.05 0.04 0.05 0.06 0.05 0.04
1.28 1.23 1.19 1.49 0.97 0.95 1.07 1.46 1.70 2.19 2.49 2.09 1.67 1.73 2.25 2.52 2.77 2.42 1.72 0.73 0.43 0.13 0.15 0.17 0.14 0.25 0.26 0.30 0.54 0.84 0.70 0.70 0.36 0.25 0.48 0.14 0.03 0.01 0.02 0.05 0.09 0.07 0.05 0.04 0.03 0.03 0.07 0.16 0.20 0.19 0.16 0.13 0.10 0.08
1.54 1.29 1.34 1.58 1.13 1.07 1.14 1.38 1.42 2.04 2.28 2.57 2.77 3.10 2.88 2.54 2.23 1.41 0.57 0.25 0.20 0.13 0.18 0.15 0.13 0.15 0.21 0.36 0.80 0.97 0.87 0.45 0.22 0.33 0.15 0.00 0.01 0.05 0.09 0.05 0.02 0.03 0.04 0.13 0.23 0.29 0.24 0.20 0.15 0.18 0.27 0.23 0.19 0.13
1.69 1.42 1.60 1.75 1.39 1.39 1.47 1.50 2.02 2.70 2.93 3.62 3.52 3.16 1.86 1.34 0.50 0.18 0.11 0.11 0.07 0.08 0.10 0.13 0.19 0.18 0.21 0.55 0.65 0.70 0.45 0.45 0.50 0.23 0.05 0.04 0.06 0.13 0.11 0.11 0.08 0.03 0.01 0.06 0.10 0.16 0.21 0.23 0.24 0.21 0.21 0.22 0.20 0.20
1.87 1.88 2.32 2.32 1.93 1.86 1.64 1.71 2.56 3.14 3.49 3.35 2.89 1.76 0.90 0.32 0.11 0.12 0.12 0.07 0.08 0.10 0.13 0.17 0.35 0.41 0.54 0.86 0.64 0.57 0.61 0.32 0.07 0.02 0.05 0.09 0.19 0.29 0.30 0.25 0.16 0.09 0.06 0.06 0.05 0.12 0.19 0.06 0.04 0.12 0.22 0.24 0.16 0.12
2.35 3.03 3.20 2.56 2.23 2.21 2.13 2.37 3.26 3.81 4.07 3.38 2.56 1.25 0.39 0.09 0.05 0.06 0.08 0.09 0.09 0.15 0.22 0.44 0.72 0.78 0.73 0.68 0.70 0.46 0.42 0.15 0.11 0.20 0.28 0.30 0.44 0.47 0.40 0.24 0.12 0.07 0.04 0.07 0.19 0.33 0.20 0.04 0.01 0.02 0.06 0.19 0.18 0.17
3.36 3.43 2.58 1.97 2.23 2.73 2.83 3.62 4.49 4.64 4.36 3.46 1.52 0.47 0.17 0.05 0.04 0.06 0.05 0.06 0.12 0.34 0.51 0.91 1.17 0.52 0.45 0.63 0.24 0.09 0.11 0.08 0.20 0.31 0.33 0.34 0.33 0.22 0.10 0.04 0.01 0.02 0.04 0.03 0.06 0.16 0.18 0.12 0.04 0.02 0.03 0.02 0.02 0.03
2.72 1.93 1.59 2.02 3.07 3.99 5.15 4.75 4.49 4.29 3.17 1.53 0.48 0.11 0.02 0.01 0.03 0.07 0.06 0.08 0.19 0.40 0.53 1.00 0.97 1.03 0.80 0.46 0.16 0.07 0.05 0.06 0.07 0.07 0.12 0.13 0.08 0.03 0.01 0.01 0.00 0.00 0.02 0.02 0.04 0.07 0.05 0.03 0.02 0.03 0.05 0.05 0.05 0.03
1.70 1.38 1.63 2.25 2.92 3.96 4.75 4.65 3.67 3.01 1.37 0.46 0.11 0.03 0.03 0.02 0.03 0.06 0.06 0.06 0.12 0.28 0.64 0.93 1.16 0.74 0.17 0.05 0.02 0.02 0.02 0.02 0.01 0.01 0.02 0.01 0.00 0.00 0.00 0.00 0.00 0.00 0.00 0.00 0.01 0.01 0.00 0.01 0.00 0.01 0.01 0.01 0.01 0.01
2.33 2.19 2.03 2.36 2.71 4.17 4.57 3.86 2.68 1.42 0.66 0.22 0.09 0.08 0.04 0.05 0.07 0.09 0.10 0.12 0.19 0.69 1.33 1.12 0.42 0.07 0.04 0.03 0.03 0.02 0.00 0.00 0.00 0.00 0.00 0.00 0.00 0.00 0.00 0.00 0.00 0.00 0.00 0.00 0.00 0.00 0.00 0.00 0.00 0.00 0.00 0.00 0.00 0.01
4.64 4.17 3.97 4.31 5.24 5.48 4.27 2.50 1.67 1.04 0.50 0.25 0.17 0.19 0.17 0.11 0.19 0.26 0.34 0.43 1.01 1.45 0.90 0.27 0.08 0.06 0.06 0.06 0.05 0.03 0.01 0.00 0.00 0.00 0.00 0.00 0.00 0.00 0.00 0.00 0.00 0.00 0.00 0.00 0.00 0.00 0.00 0.00 0.00 0.00 0.00 0.00 0.01 0.02
4.98 4.91 5.95 6.01 6.30 5.77 4.27 2.38 1.25 0.78 0.60 0.52 0.34 0.32 0.44 0.36 0.34 0.48 0.70 1.09 1.24 0.63 0.20 0.09 0.12 0.10 0.07 0.06 0.06 0.05 0.04 0.01 0.00 0.00 0.00 0.00 0.00 0.00 0.00 0.00 0.00 0.00 0.00 0.00 0.00 0.00 0.00 0.00 0.00 0.00 0.00 0.00 0.00 0.01
3.91 4.20 4.59 4.75 4.91 4.27 3.07 1.49 1.06 0.86 0.62 0.51 0.41 0.57 0.58 0.45 0.50 0.65 1.04 0.93 0.51 0.23 0.18 0.19 0.20 0.16 0.13 0.07 0.07 0.04 0.05 0.06 0.03 0.01 0.00 0.00 0.00 0.00 0.00 0.00 0.00 0.00 0.00 0.00 0.00 0.00 0.00 0.00 0.00 0.00 0.00 0.00 0.01 0.01
4.19 4.78 4.80 4.47 3.32 2.66 1.96 1.42 0.90 0.62 0.68 0.61 0.58 0.57 0.50 0.42 0.61 0.79 0.64 0.19 0.15 0.20 0.28 0.31 0.28 0.19 0.15 0.13 0.12 0.12 0.10 0.09 0.08 0.07 0.04 0.02 0.01 0.00 0.00 0.00 0.01 0.01 0.00 0.00 0.00 0.00 0.00 0.01 0.02 0.03 0.04 0.05 0.05 0.04
6.54 6.49 4.14 3.62 2.35 1.32 0.77 0.55 0.47 0.34 0.31 0.25 0.33 0.42 0.41 0.48 0.59 0.54 0.24 0.12 0.19 0.28 0.31 0.28 0.23 0.20 0.15 0.13 0.13 0.13 0.15 0.18 0.13 0.12 0.15 0.15 0.08 0.04 0.03 0.02 0.01 0.01 0.01 0.01 0.01 0.01 0.02 0.03 0.05 0.08 0.09 0.08 0.07 0.07
4.69 3.26 2.57 1.27 0.73 0.31 0.27 0.24 0.19 0.13 0.14 0.24 0.33 0.34 0.40 0.48 0.55 0.37 0.12 0.13 0.25 0.36 0.37 0.31 0.22 0.17 0.16 0.16 0.14 0.15 0.11 0.15 0.17 0.20 0.24 0.27 0.24 0.20 0.12 0.06 0.04 0.03 0.02 0.05 0.08 0.09 0.08 0.08 0.08 0.10 0.11 0.11 0.14 0.18
2.83 1.87 0.93 0.32 0.11 0.05 0.06 0.07 0.07 0.09 0.21 0.30 0.28 0.28 0.41 0.69 0.43 0.16 0.11 0.17 0.26 0.35 0.44 0.44 0.29 0.22 0.19 0.20 0.22 0.24 0.22 0.22 0.22 0.18 0.24 0.33 0.32 0.27 0.26 0.20 0.12 0.08 0.11 0.17 0.17 0.15 0.14 0.15 0.16 0.16 0.20 0.23 0.23 0.24
1.11 0.36 0.31 0.23 0.09 0.05 0.07 0.11 0.13 0.14 0.14 0.11 0.13 0.26 0.38 0.28 0.11 0.10 0.15 0.24 0.33 0.40 0.47 0.49 0.39 0.31 0.29 0.27 0.28 0.31 0.32 0.32 0.35 0.37 0.42 0.46 0.45 0.40 0.34 0.36 0.41 0.42 0.39 0.37 0.33 0.33 0.31 0.27 0.27 0.27 0.28 0.29 0.29 0.32
0.45 0.26 0.13 0.15 0.18 0.21 0.18 0.12 0.11 0.08 0.03 0.04 0.07 0.11 0.08 0.05 0.08 0.12 0.19 0.28 0.36 0.41 0.43 0.42 0.42 0.38 0.36 0.35 0.39 0.46 0.45 0.39 0.32 0.32 0.25 0.25 0.32 0.44 0.49 0.48 0.57 0.64 0.59 0.61 0.59 0.50 0.44 0.42 0.42 0.42 0.42 0.42 0.38 0.40
0.29 0.17 0.15 0.13 0.13 0.15 0.11 0.06 0.05 0.05 0.05 0.04 0.03 0.04 0.05 0.08 0.14 0.19 0.24 0.30 0.37 0.42 0.47 0.46 0.43 0.43 0.43 0.42 0.43 0.46 0.48 0.47 0.44 0.31 0.30 0.26 0.26 0.40 0.55 0.60 0.61 0.63 0.68 0.64 0.62 0.69 0.70 0.67 0.66 0.62 0.56 0.52 0.49 0.46
0.18 0.15 0.14 0.16 0.18 0.17 0.17 0.19 0.19 0.14 0.13 0.13 0.11 0.10 0.09 0.12 0.16 0.20 0.24 0.28 0.34 0.40 0.45 0.47 0.47 0.48 0.48 0.50 0.49 0.47 0.50 0.52 0.57 0.54 0.47 0.55 0.64 0.66 0.65 0.68 0.70 0.71 0.68 0.61 0.55 0.51 0.48 0.47 0.44 0.43 0.45 0.46 0.45 0.43
0.29 0.23 0.14 0.18 0.27 0.32 0.32 0.31 0.27 0.23 0.24 0.19 0.19 0.18 0.16 0.14 0.14 0.16 0.19 0.24 0.30 0.34 0.39 0.41 0.37 0.39 0.42 0.43 0.48 0.55 0.54 0.55 0.62 0.62 0.61 0.61 0.62 0.55 0.54 0.61 0.66 0.65 0.64 0.61 0.53 0.50 0.49 0.51 0.56 0.55 0.55 0.51 0.46 0.41
0.47 0.37 0.30 0.28 0.34 0.39 0.36 0.33 0.44 0.42 0.33 0.26 0.21 0.17 0.14 0.11 0.10 0.11 0.14 0.18 0.24 0.30 0.33 0.38 0.42 0.45 0.48 0.50 0.54 0.60 0.64 0.65 0.63 0.66 0.75 0.73 0.66 0.63 0.61 0.61 0.57 0.56 0.54 0.53 0.55 0.61 0.63 0.62 0.58 0.55 0.54 0.50 0.44 0.40

GFSWCAN_prec_precacc_156.txt.gz
Total_Precipitation_Accumulation
1.25 1.28 1.44 1.23 0.96 0.66 0.64 0.66 1.09 1.54 1.36 1.22 1.23 0.92 0.87 0.58 0.47 0.47 0.27 0.32 0.47 0.25 0.01 0.00 0.00 0.08 0.38 0.35 0.27 0.34 0.44 0.34 0.43 0.46 0.32 0.14 0.04 0.01 0.00 0.00 0.00 0.04 0.08 0.10 0.15 0.19 0.02 0.00 0.00 0.01 0.01 0.00 0.00 0.01
1.15 1.19 1.15 1.11 1.16 1.27 0.87 0.83 1.11 1.36 1.13 0.94 0.78 0.67 0.66 0.54 0.47 0.59 0.39 0.24 0.36 0.26 0.04 0.00 0.00 0.01 0.20 0.33 0.37 0.34 0.39 0.31 0.40 0.40 0.26 0.11 0.04 0.02 0.01 0.01 0.00 0.00 0.01 0.00 0.00 0.00 0.00 0.00 0.00 0.00 0.00 0.00 0.00 0.00
1.44 1.28 1.15 1.01 0.78 0.93 1.39 1.53 1.37 1.23 0.92 0.75 0.58 0.51 0.55 0.51 0.47 0.66 0.40 0.27 0.34 0.30 0.08 0.02 0.02 0.00 0.08 0.20 0.35 0.35 0.35 0.30 0.40 0.31 0.40 0.23 0.11 0.02 0.01 0.00 0.00 0.00 0.00 0.00 0.00 0.00 0.00 0.00 0.00 0.00 0.00 0.00 0.00 0.00
1.46 1.19 1.02 1.11 1.12 0.80 1.00 1.68 1.77 1.43 1.05 0.67 0.46 0.43 0.35 0.39 0.50 0.66 0.25 0.17 0.32 0.47 0.30 0.07 0.03 0.01 0.04 0.19 0.29 0.32 0.44 0.36 0.37 0.49 0.51 0.47 0.23 0.05 0.02 0.00 0.00 0.00 0.00 0.00 0.00 0.00 0.00 0.00 0.00 0.00 0.00 0.00 0.00 0.00
1.34 1.44 1.10 0.87 1.03 1.23 0.98 1.10 1.15 1.10 0.97 0.53 0.35 0.38 0.35 0.39 0.51 0.39 0.19 0.19 0.25 0.55 0.59 0.27 0.09 0.02 0.01 0.16 0.33 0.37 0.50 0.71 0.65 0.77 0.67 0.36 0.18 0.08 0.05 0.03 0.01 0.00 0.00 0.00 0.00 0.00 0.00 0.00 0.00 0.00 0.00 0.00 0.00 0.00
1.14 1.22 1.55 1.13 0.79 0.87 1.17 1.02 1.03 0.89 0.76 0.43 0.42 0.51 0.54 0.49 0.82 0.60 0.70 0.46 0.29 0.47 1.07 0.72 0.35 0.15 0.06 0.16 0.37 0.52 0.51 0.57 0.86 0.88 0.65 0.36 0.15 0.25 0.46 0.13 0.00 0.00 0.00 0.00 0.00 0.00 0.00 0.00 0.00 0.00 0.00 0.00 0.00 0.00
0.97 0.98 1.25 1.55 1.14 0.93 1.29 1.04 1.00 0.92 0.79 0.55 0.58 0.62 0.54 0.64 0.76 0.62 0.53 0.52 0.54 0.66 1.10 0.87 0.82 0.41 0.21 0.31 0.57 0.64 0.66 0.73 0.80 1.08 0.66 0.37 0.25 0.50 0.66 0.16 0.00 0.00 0.00 0.00 0.00 0.00 0.00 0.00 0.00 0.00 0.00 0.00 0.00 0.00
1.05 0.94 0.97 1.29 1.26 1.15 1.28 1.11 0.91 0.87 0.76 0.62 0.65 0.64 0.74 1.12 1.12 0.76 0.23 0.42 0.66 0.93 1.06 1.03 0.94 0.56 0.44 0.46 0.69 0.74 0.68 0.70 0.78 0.93 0.57 0.31 0.38 0.60 0.47 0.02 0.00 0.01 0.01 0.01 0.01 0.01 0.00 0.00 0.00 0.01 0.02 0.01 0.00 0.00
1.18 1.03 1.02 1.25 1.07 1.12 1.26 1.41 1.01 0.83 0.81 0.84 1.10 1.33 1.54 1.32 0.67 0.30 0.30 0.56 0.71 1.04 1.32 0.80 0.46 0.46 0.50 0.35 0.51 0.50 0.66 0.77 0.71 0.51 0.53 0.48 0.36 0.35 0.13 0.02 0.00 0.00 0.00 0.00 0.00 0.00 0.00 0.00 0.00 0.00 0.00 0.01 0.02 0.04
1.26 1.12 1.03 1.34 0.98 0.99 1.20 1.38 1.20 0.99 1.09 1.65 1.85 1.70 1.35 0.64 0.50 0.90 1.54 1.80 1.93 1.26 0.94 0.62 0.29 0.22 0.45 0.32 0.47 0.60 0.49 0.49 0.47 0.21 0.31 0.55 0.27 0.09 0.06 0.01 0.00 0.00 0.00 0.01 0.01 0.00 0.01 0.02 0.02 0.01 0.02 0.01 0.02 0.03
1.23 1.24 1.06 1.42 0.95 1.00 1.17 1.41 1.42 1.60 2.30 2.51 2.14 1.53 0.96 0.86 1.52 2.19 2.28 1.65 1.12 0.73 0.31 0.18 0.26 0.23 0.26 0.35 0.53 0.58 0.73 0.48 0.43 0.14 0.29 0.39 0.18 0.09 0.06 0.03 0.01 0.00 0.01 0.01 0.01 0.03 0.05 0.05 0.05 0.04 0.05 0.06 0.05 0.04
1.29 1.24 1.21 1.51 0.98 0.95 1.07 1.47 1.71 2.19 2.49 2.09 1.67 1.73 2.25 2.52 2.77 2.42 1.72 0.74 0.43 0.13 0.16 0.17 0.14 0.25 0.26 0.30 0.55 0.84 0.72 0.70 0.36 0.25 0.50 0.14 0.03 0.01 0.02 0.05 0.09 0.07 0.05 0.04 0.03 0.03 0.07 0.16 0.20 0.19 0.16 0.13 0.10 0.08
1.57 1.32 1.36 1.60 1.14 1.07 1.14 1.39 1.42 2.04 2.28 2.57 2.77 3.10 2.88 2.54 2.23 1.41 0.57 0.26 0.20 0.13 0.18 0.15 0.13 0.15 0.21 0.37 0.81 0.97 0.89 0.46 0.22 0.35 0.16 0.01 0.02 0.06 0.11 0.06 0.02 0.03 0.04 0.14 0.24 0.30 0.25 0.20 0.15 0.18 0.27 0.23 0.19 0.13
1.72 1.46 1.63 1.80 1.42 1.39 1.48 1.51 2.02 2.70 2.93 3.62 3.52 3.16 1.86 1.34 0.50 0.18 0.11 0.11 0.07 0.08 0.10 0.13 0.19 0.18 0.21 0.56 0.65 0.72 0.47 0.48 0.54 0.25 0.06 0.06 0.08 0.13 0.13 0.12 0.08 0.03 0.02 0.07 0.10 0.16 0.21 0.23 0.24 0.21 0.21 0.22 0.20 0.20
1.90 1.92 2.35 2.35 1.95 1.88 1.67 1.76 2.58 3.14 3.49 3.35 2.89 1.76 0.90 0.32 0.11 0.12 0.12 0.07 0.08 0.10 0.13 0.17 0.35 0.41 0.54 0.86 0.64 0.57 0.61 0.32 0.07 0.02 0.06 0.10 0.19 0.29 0.30 0.25 0.16 0.09 0.06 0.06 0.05 0.12 0.19 0.06 0.04 0.12 0.22 0.24 0.16 0.12
2.39 3.08 3.23 2.58 2.26 2.25 2.17 2.41 3.27 3.81 4.07 3.38 2.56 1.25 0.39 0.09 0.05 0.06 0.08 0.09 0.09 0.15 0.22 0.44 0.72 0.78 0.73 0.68 0.71 0.47 0.42 0.15 0.11 0.20 0.28 0.30 0.44 0.47 0.40 0.24 0.12 0.07 0.04 0.07 0.19 0.33 0.20 0.04 0.01 0.02 0.06 0.19 0.18 0.17
3.43 3.44 2.58 1.99 2.28 2.77 2.85 3.62 4.49 4.64 4.36 3.46 1.52 0.47 0.17 0.05 0.04 0.06 0.05 0.06 0.12 0.34 0.51 0.91 1.17 0.52 0.45 0.63 0.24 0.09 0.11 0.08 0.20 0.31 0.33 0.34 0.33 0.22 0.10 0.04 0.01 0.02 0.04 0.03 0.06 0.16 0.18 0.12 0.04 0.02 0.03 0.02 0.02 0.03
2.76 1.93 1.61 2.04 3.09 4.02 5.17 4.75 4.49 4.29 3.17 1.53 0.48 0.11 0.02 0.01 0.03 0.07 0.06 0.08 0.19 0.40 0.53 1.00 0.97 1.03 0.80 0.46 0.16 0.07 0.05 0.06 0.07 0.07 0.12 0.13 0.08 0.03 0.01 0.01 0.00 0.00 0.02 0.02 0.04 0.07 0.05 0.03 0.02 0.03 0.05 0.05 0.05 0.03
1.71 1.39 1.65 2.27 2.92 3.97 4.77 4.66 3.67 3.01 1.37 0.46 0.11 0.03 0.03 0.02 0.03 0.06 0.06 0.06 0.12 0.28 0.64 0.93 1.16 0.74 0.17 0.05 0.02 0.02 0.02 0.02 0.01 0.01 0.02 0.01 0.00 0.00 0.00 0.00 0.00 0.00 0.00 0.00 0.01 0.01 0.00 0.01 0.00 0.01 0.01 0.01 0.01 0.01
2.35 2.20 2.05 2.38 2.71 4.18 4.58 3.88 2.72 1.42 0.66 0.22 0.09 0.08 0.04 0.05 0.07 0.09 0.10 0.12 0.19 0.69 1.33 1.12 0.42 0.07 0.04 0.03 0.03 0.02 0.00 0.00 0.00 0.00 0.00 0.00 0.00 0.00 0.00 0.00 0.00 0.00 0.00 0.00 0.00 0.00 0.00 0.00 0.00 0.00 0.00 0.00 0.00 0.01
4.70 4.20 4.04 4.35 5.27 5.51 4.31 2.52 1.67 1.04 0.50 0.25 0.17 0.19 0.17 0.11 0.19 0.26 0.34 0.43 1.01 1.45 0.90 0.27 0.08 0.06 0.06 0.06 0.05 0.03 0.01 0.00 0.00 0.00 0.00 0.00 0.00 0.00 0.00 0.00 0.00 0.00 0.00 0.00 0.00 0.00 0.00 0.00 0.00 0.00 0.00 0.00 0.01 0.02
5.02 4.95 5.99 6.07 6.41 5.91 4.37 2.42 1.25 0.78 0.60 0.52 0.34 0.32 0.44 0.36 0.34 0.48 0.70 1.09 1.24 0.63 0.20 0.09 0.12 0.10 0.07 0.06 0.06 0.05 0.04 0.01 0.00 0.00 0.00 0.00 0.00 0.00 0.00 0.00 0.00 0.00 0.00 0.00 0.00 0.00 0.00 0.00 0.00 0.00 0.00 0.00 0.00 0.01
3.93 4.23 4.64 4.84 5.04 4.41 3.21 1.56 1.13 0.92 0.65 0.53 0.42 0.57 0.58 0.45 0.50 0.65 1.04 0.93 0.51 0.23 0.18 0.19 0.20 0.16 0.13 0.07 0.07 0.04 0.05 0.06 0.03 0.01 0.00 0.00 0.00 0.00 0.00 0.00 0.00 0.00 0.00 0.00 0.00 0.00 0.00 0.00 0.00 0.00 0.00 0.00 0.01 0.01
4.26 4.90 4.94 4.57 3.39 2.74 2.02 1.49 0.94 0.65 0.72 0.63 0.60 0.58 0.51 0.42 0.61 0.79 0.64 0.19 0.15 0.20 0.28 0.31 0.28 0.19 0.15 0.13 0.12 0.12 0.10 0.09 0.08 0.07 0.04 0.02 0.01 0.00 0.00 0.00 0.01 0.01 0.00 0.00 0.00 0.00 0.00 0.01 0.02 0.03 0.04 0.05 0.05 0.04
6.60 6.57 4.20 3.68 2.39 1.33 0.78 0.56 0.48 0.35 0.32 0.26 0.35 0.43 0.41 0.48 0.59 0.54 0.24 0.12 0.19 0.28 0.31 0.28 0.23 0.20 0.15 0.13 0.13 0.13 0.15 0.18 0.13 0.12 0.15 0.15 0.08 0.04 0.03 0.02 0.01 0.01 0.01 0.01 0.01 0.01 0.02 0.03 0.05 0.08 0.09 0.08 0.07 0.07
4.69 3.26 2.57 1.27 0.73 0.31 0.27 0.24 0.19 0.13 0.14 0.24 0.33 0.34 0.40 0.48 0.55 0.37 0.12 0.13 0.25 0.36 0.37 0.31 0.22 0.17 0.16 0.16 0.14 0.15 0.11 0.15 0.17 0.20 0.24 0.27 0.24 0.20 0.12 0.06 0.04 0.03 0.02 0.05 0.08 0.09 0.08 0.08 0.08 0.10 0.11 0.11 0.14 0.18
2.83 1.87 0.93 0.32 0.11 0.05 0.06 0.07 0.07 0.09 0.21 0.30 0.28 0.28 0.41 0.69 0.43 0.16 0.11 0.17 0.26 0.35 0.44 0.44 0.29 0.22 0.19 0.20 0.22 0.24 0.22 0.22 0.22 0.18 0.24 0.33 0.32 0.27 0.26 0.20 0.12 0.08 0.11 0.17 0.17 0.15 0.15 0.15 0.16 0.16 0.20 0.23 0.23 0.24
1.11 0.36 0.31 0.23 0.09 0.05 0.07 0.11 0.13 0.14 0.14 0.11 0.13 0.26 0.38 0.28 0.11 0.10 0.15 0.24 0.33 0.40 0.47 0.49 0.39 0.31 0.29 0.27 0.28 0.31 0.32 0.32 0.35 0.37 0.42 0.46 0.45 0.40 0.34 0.36 0.41 0.42 0.39 0.40 0.39 0.40 0.35 0.30 0.28 0.27 0.28 0.29 0.29 0.32
0.45 0.26 0.13 0.15 0.18 0.22 0.18 0.12 0.11 0.08 0.03 0.04 0.07 0.11 0.08 0.05 0.08 0.12 0.19 0.28 0.36 0.41 0.43 0.42 0.42 0.38 0.36 0.35 0.39 0.46 0.45 0.39 0.32 0.33 0.26 0.25 0.32 0.44 0.49 0.48 0.58 0.67 0.63 0.66 0.62 0.54 0.49 0.47 0.45 0.43 0.43 0.42 0.38 0.40
0.29 0.17 0.15 0.13 0.13 0.15 0.11 0.06 0.05 0.05 0.05 0.04 0.03 0.04 0.05 0.08 0.14 0.19 0.24 0.30 0.37 0.42 0.47 0.46 0.43 0.43 0.43 0.42 0.43 0.46 0.48 0.47 0.44 0.35 0.38 0.31 0.28 0.41 0.56 0.61 0.63 0.65 0.70 0.68 0.65 0.71 0.71 0.71 0.69 0.64 0.57 0.53 0.49 0.46
0.18 0.15 0.14 0.16 0.18 0.17 0.17 0.19 0.19 0.14 0.13 0.13 0.11 0.10 0.09 0.12 0.16 0.20 0.24 0.28 0.34 0.40 0.45 0.47 0.47 0.48 0.48 0.50 0.49 0.47 0.50 0.52 0.57 0.54 0.48 0.59 0.67 0.68 0.67 0.71 0.74 0.75 0.71 0.63 0.57 0.54 0.50 0.49 0.46 0.44 0.46 0.46 0.45 0.43
0.29 0.24 0.14 0.18 0.27 0.32 0.32 0.31 0.27 0.23 0.24 0.19 0.19 0.18 0.16 0.14 0.14 0.16 0.19 0.24 0.30 0.34 0.39 0.41 0.37 0.39 0.42 0.43 0.48 0.55 0.55 0.56 0.62 0.64 0.64 0.65 0.66 0.59 0.57 0.63 0.67 0.67 0.67 0.63 0.54 0.52 0.50 0.53 0.57 0.56 0.55 0.52 0.46 0.41
0.47 0.38 0.31 0.28 0.34 0.39 0.36 0.33 0.44 0.42 0.33 0.26 0.21 0.17 0.14 0.11 0.10 0.11 0.14 0.18 0.24 0.30 0.33 0.38 0.42 0.45 0.48 0.50 0.54 0.61 0.65 0.66 0.64 0.69 0.81 0.81 0.73 0.69 0.66 0.64 0.59 0.58 0.56 0.55 0.56 0.62 0.65 0.63 0.59 0.55 0.54 0.50 0.44 0.40

GFSWCAN_prec_precacc_159.txt.gz
Total_Precipitation_Accumulation
1.25 1.28 1.44 1.23 0.96 0.66 0.64 0.66 1.09 1.54 1.36 1.22 1.23 0.92 0.87 0.58 0.47 0.47 0.27 0.32 0.47 0.25 0.01 0.00 0.00 0.08 0.38 0.35 0.27 0.34 0.44 0.34 0.43 0.46 0.32 0.14 0.04 0.01 0.00 0.00 0.00 0.04 0.08 0.10 0.15 0.20 0.02 0.00 0.00 0.01 0.01 0.00 0.00 0.01
1.15 1.19 1.15 1.11 1.16 1.27 0.87 0.83 1.12 1.36 1.13 0.94 0.78 0.67 0.66 0.54 0.48 0.60 0.39 0.24 0.36 0.26 0.04 0.00 0.00 0.01 0.20 0.33 0.37 0.34 0.39 0.31 0.40 0.40 0.26 0.11 0.04 0.02 0.01 0.01 0.00 0.00 0.01 0.00 0.00 0.00 0.00 0.00 0.00 0.00 0.00 0.00 0.00 0.00
1.44 1.28 1.16 1.01 0.78 0.93 1.39 1.54 1.37 1.24 0.92 0.75 0.58 0.51 0.55 0.51 0.47 0.66 0.40 0.27 0.34 0.31 0.08 0.02 0.02 0.00 0.08 0.20 0.35 0.35 0.35 0.30 0.40 0.31 0.40 0.23 0.11 0.02 0.01 0.00 0.00 0.00 0.00 0.00 0.00 0.00 0.00 0.00 0.00 0.00 0.00 0.00 0.00 0.00
1.46 1.19 1.03 1.11 1.12 0.80 1.01 1.68 1.82 1.52 1.12 0.73 0.49 0.45 0.35 0.39 0.50 0.66 0.25 0.17 0.32 0.48 0.31 0.07 0.03 0.01 0.04 0.19 0.29 0.32 0.44 0.36 0.37 0.49 0.51 0.48 0.24 0.05 0.02 0.00 0.00 0.00 0.00 0.00 0.00 0.00 0.00 0.00 0.00 0.00 0.00 0.00 0.00 0.00
1.34 1.44 1.10 0.87 1.04 1.25 1.00 1.13 1.17 1.12 1.02 0.57 0.38 0.40 0.37 0.40 0.52 0.39 0.19 0.20 0.26 0.55 0.59 0.28 0.09 0.02 0.01 0.16 0.33 0.37 0.50 0.71 0.65 0.77 0.67 0.37 0.18 0.08 0.05 0.04 0.02 0.00 0.00 0.00 0.00 0.00 0.00 0.00 0.00 0.00 0.00 0.00 0.00 0.00
1.14 1.22 1.55 1.13 0.80 0.88 1.18 1.03 1.05 0.92 0.78 0.45 0.43 0.52 0.55 0.49 0.82 0.60 0.70 0.46 0.29 0.50 1.11 0.74 0.35 0.15 0.06 0.16 0.37 0.52 0.51 0.57 0.86 0.88 0.66 0.37 0.15 0.27 0.51 0.15 0.00 0.00 0.00 0.00 0.00 0.00 0.00 0.00 0.00 0.00 0.00 0.00 0.00 0.00
0.97 0.98 1.25 1.56 1.16 0.94 1.30 1.05 1.01 0.93 0.80 0.55 0.58 0.62 0.54 0.64 0.76 0.62 0.53 0.52 0.54 0.67 1.10 0.87 0.82 0.41 0.21 0.31 0.57 0.64 0.66 0.73 0.81 1.09 0.67 0.37 0.26 0.54 0.73 0.19 0.00 0.00 0.00 0.00 0.00 0.01 0.00 0.00 0.00 0.00 0.00 0.00 0.00 0.00
1.05 0.94 0.97 1.29 1.27 1.16 1.29 1.11 0.91 0.87 0.76 0.62 0.65 0.64 0.74 1.12 1.12 0.76 0.23 0.42 0.66 0.93 1.06 1.03 0.94 0.56 0.44 0.46 0.69 0.74 0.68 0.70 0.79 0.93 0.58 0.32 0.39 0.63 0.52 0.02 0.00 0.01 0.01 0.01 0.01 0.01 0.00 0.00 0.00 0.01 0.02 0.01 0.00 0.00
1.20 1.04 1.02 1.25 1.07 1.13 1.27 1.41 1.01 0.83 0.81 0.84 1.10 1.33 1.54 1.32 0.67 0.30 0.30 0.56 0.71 1.04 1.32 0.80 0.46 0.46 0.50 0.35 0.51 0.50 0.66 0.77 0.71 0.51 0.53 0.48 0.37 0.37 0.13 0.02 0.00 0.00 0.00 0.00 0.00 0.00 0.00 0.00 0.00 0.00 0.00 0.01 0.02 0.04
1.27 1.13 1.03 1.34 0.98 1.00 1.20 1.38 1.20 0.99 1.09 1.65 1.85 1.70 1.35 0.64 0.50 0.90 1.54 1.80 1.93 1.26 0.94 0.62 0.29 0.22 0.45 0.32 0.47 0.60 0.49 0.49 0.47 0.21 0.31 0.56 0.27 0.09 0.06 0.01 0.00 0.00 0.00 0.01 0.01 0.02 0.01 0.02 0.02 0.01 0.02 0.01 0.02 0.03
1.23 1.24 1.07 1.43 0.96 1.01 1.17 1.41 1.42 1.60 2.30 2.51 2.14 1.53 0.96 0.86 1.52 2.19 2.28 1.65 1.12 0.73 0.31 0.18 0.26 0.23 0.26 0.35 0.53 0.58 0.73 0.48 0.43 0.14 0.29 0.39 0.18 0.09 0.06 0.03 0.01 0.00 0.01 0.01 0.01 0.03 0.05 0.05 0.05 0.04 0.05 0.06 0.05 0.04
1.31 1.25 1.23 1.52 1.00 0.95 1.07 1.47 1.72 2.19 2.49 2.09 1.67 1.73 2.25 2.52 2.77 2.42 1.72 0.74 0.43 0.13 0.16 0.17 0.14 0.25 0.26 0.30 0.55 0.84 0.72 0.71 0.37 0.25 0.52 0.15 0.03 0.01 0.02 0.05 0.09 0.07 0.05 0.04 0.03 0.03 0.07 0.16 0.20 0.19 0.16 0.13 0.10 0.08
1.60 1.34 1.38 1.62 1.17 1.09 1.14 1.40 1.45 2.04 2.28 2.57 2.77 3.10 2.88 2.54 2.24 1.41 0.57 0.26 0.20 0.13 0.19 0.16 0.13 0.15 0.21 0.37 0.81 0.98 0.90 0.47 0.23 0.36 0.16 0.01 0.02 0.06 0.11 0.06 0.02 0.03 0.04 0.14 0.24 0.30 0.25 0.20 0.15 0.18 0.27 0.23 0.19 0.13
1.75 1.51 1.68 1.84 1.45 1.42 1.50 1.55 2.03 2.70 2.93 3.62 3.52 3.16 1.86 1.34 0.50 0.18 0.11 0.11 0.07 0.08 0.10 0.13 0.19 0.18 0.21 0.56 0.65 0.72 0.47 0.48 0.55 0.27 0.06 0.06 0.09 0.13 0.13 0.12 0.08 0.03 0.02 0.07 0.10 0.16 0.21 0.23 0.24 0.21 0.21 0.22 0.20 0.20
1.92 1.97 2.40 2.39 2.00 1.90 1.69 1.81 2.61 3.14 3.49 3.35 2.89 1.76 0.90 0.32 0.11 0.12 0.12 0.07 0.08 0.10 0.13 0.17 0.35 0.41 0.54 0.86 0.64 0.57 0.62 0.32 0.07 0.02 0.06 0.10 0.19 0.29 0.30 0.25 0.16 0.09 0.06 0.06 0.05 0.12 0.19 0.06 0.04 0.12 0.22 0.24 0.16 0.12
2.45 3.16 3.28 2.59 2.30 2.32 2.25 2.50 3.29 3.81 4.07 3.38 2.56 1.25 0.39 0.09 0.05 0.06 0.08 0.09 0.09 0.15 0.22 0.44 0.72 0.78 0.73 0.68 0.71 0.47 0.42 0.15 0.11 0.20 0.28 0.30 0.44 0.48 0.41 0.25 0.12 0.07 0.04 0.07 0.19 0.33 0.20 0.04 0.01 0.02 0.06 0.19 0.18 0.17
3.57 3.64 2.63 2.01 2.32 2.84 2.92 3.70 4.56 4.66 4.36 3.46 1.52 0.47 0.17 0.05 0.04 0.06 0.05 0.06 0.12 0.34 0.51 0.91 1.17 0.52 0.45 0.63 0.24 0.09 0.11 0.08 0.20 0.31 0.33 0.34 0.33 0.22 0.10 0.04 0.01 0.02 0.04 0.03 0.06 0.16 0.18 0.12 0.04 0.02 0.03 0.02 0.02 0.03
3.03 2.08 1.67 2.07 3.14 4.08 5.25 4.81 4.55 4.32 3.18 1.53 0.48 0.11 0.02 0.01 0.03 0.07 0.06 0.08 0.19 0.40 0.53 1.00 0.97 1.03 0.80 0.46 0.16 0.07 0.05 0.06 0.07 0.07 0.12 0.13 0.08 0.03 0.01 0.01 0.00 0.00 0.02 0.02 0.04 0.07 0.05 0.03 0.02 0.03 0.05 0.05 0.05 0.03
1.91 1.49 1.77 2.30 2.93 4.01 4.87 4.70 3.68 3.01 1.37 0.46 0.11 0.03 0.03 0.02 0.03 0.06 0.06 0.06 0.12 0.28 0.64 0.93 1.16 0.74 0.17 0.05 0.02 0.02 0.02 0.02 0.01 0.01 0.02 0.01 0.00 0.00 0.00 0.00 0.00 0.00 0.00 0.00 0.01 0.01 0.00 0.01 0.00 0.01 0.01 0.01 0.01 0.01
2.50 2.37 2.18 2.40 2.71 4.19 4.59 3.90 2.73 1.42 0.66 0.22 0.09 0.08 0.04 0.05 0.07 0.09 0.10 0.12 0.19 0.69 1.33 1.12 0.42 0.07 0.04 0.03 0.03 0.02 0.00 0.00 0.00 0.00 0.00 0.00 0.00 0.00 0.00 0.00 0.00 0.00 0.00 0.00 0.00 0.00 0.00 0.00 0.00 0.00 0.00 0.00 0.00 0.01
4.99 4.45 4.16 4.36 5.28 5.51 4.31 2.52 1.68 1.04 0.50 0.25 0.17 0.19 0.17 0.11 0.19 0.26 0.34 0.43 1.01 1.45 0.90 0.27 0.08 0.06 0.06 0.06 0.05 0.03 0.01 0.00 0.00 0.00 0.00 0.00 0.00 0.00 0.00 0.00 0.00 0.00 0.00 0.00 0.00 0.00 0.00 0.00 0.00 0.00 0.00 0.00 0.01 0.02
5.29 5.08 6.09 6.09 6.42 5.92 4.38 2.42 1.25 0.78 0.60 0.52 0.34 0.32 0.44 0.36 0.34 0.48 0.70 1.09 1.24 0.63 0.20 0.09 0.12 0.10 0.07 0.06 0.06 0.05 0.04 0.01 0.00 0.00 0.00 0.00 0.00 0.00 0.00 0.00 0.00 0.00 0.00 0.00 0.00 0.00 0.00 0.00 0.00 0.00 0.00 0.00 0.00 0.01
4.01 4.26 4.70 4.88 5.07 4.46 3.28 1.60 1.15 0.92 0.65 0.54 0.42 0.57 0.58 0.45 0.50 0.65 1.04 0.93 0.51 0.23 0.18 0.19 0.20 0.16 0.13 0.07 0.07 0.04 0.05 0.06 0.03 0.01 0.00 0.00 0.00 0.00 0.00 0.00 0.00 0.00 0.00 0.00 0.00 0.00 0.00 0.00 0.00 0.00 0.00 0.00 0.01 0.01
4.28 4.94 4.97 4.60 3.42 2.80 2.05 1.52 0.97 0.66 0.73 0.64 0.60 0.58 0.51 0.42 0.61 0.79 0.64 0.19 0.15 0.20 0.28 0.31 0.28 0.19 0.15 0.13 0.12 0.12 0.10 0.09 0.08 0.07 0.04 0.02 0.01 0.00 0.00 0.00 0.01 0.01 0.00 0.00 0.00 0.00 0.00 0.01 0.02 0.03 0.04 0.05 0.05 0.04
6.69 6.71 4.28 3.75 2.43 1.34 0.78 0.57 0.48 0.36 0.33 0.27 0.37 0.44 0.41 0.48 0.59 0.54 0.24 0.12 0.19 0.28 0.31 0.28 0.23 0.20 0.15 0.13 0.13 0.13 0.15 0.18 0.13 0.12 0.15 0.15 0.08 0.04 0.03 0.02 0.01 0.01 0.01 0.01 0.01 0.01 0.02 0.03 0.05 0.08 0.09 0.08 0.07 0.07
4.77 3.33 2.61 1.29 0.74 0.31 0.27 0.24 0.19 0.13 0.14 0.25 0.33 0.34 0.40 0.48 0.55 0.37 0.12 0.13 0.25 0.36 0.37 0.31 0.22 0.17 0.16 0.16 0.14 0.15 0.11 0.15 0.17 0.20 0.24 0.27 0.24 0.20 0.12 0.06 0.04 0.03 0.02 0.05 0.08 0.09 0.08 0.08 0.08 0.10 0.11 0.11 0.14 0.19
2.85 1.87 0.93 0.32 0.11 0.05 0.06 0.07 0.07 0.09 0.21 0.30 0.28 0.28 0.41 0.69 0.43 0.16 0.11 0.17 0.26 0.35 0.44 0.44 0.29 0.22 0.19 0.20 0.22 0.24 0.22 0.22 0.22 0.18 0.24 0.33 0.32 0.27 0.26 0.20 0.12 0.08 0.11 0.17 0.17 0.16 0.16 0.17 0.18 0.17 0.21 0.24 0.24 0.25
1.11 0.36 0.31 0.23 0.10 0.05 0.07 0.11 0.13 0.14 0.14 0.11 0.13 0.26 0.38 0.28 0.11 0.10 0.15 0.24 0.33 0.40 0.47 0.49 0.39 0.31 0.29 0.27 0.28 0.31 0.32 0.32 0.35 0.37 0.42 0.46 0.45 0.40 0.34 0.36 0.41 0.43 0.43 0.44 0.45 0.47 0.43 0.37 0.34 0.30 0.30 0.30 0.29 0.32
0.45 0.26 0.13 0.16 0.19 0.22 0.18 0.12 0.11 0.08 0.03 0.04 0.07 0.11 0.08 0.05 0.08 0.12 0.19 0.28 0.36 0.41 0.43 0.42 0.42 0.38 0.36 0.35 0.39 0.46 0.45 0.39 0.32 0.35 0.27 0.25 0.32 0.44 0.49 0.48 0.60 0.70 0.67 0.70 0.64 0.56 0.52 0.52 0.50 0.48 0.47 0.45 0.40 0.42
0.29 0.17 0.15 0.13 0.13 0.15 0.11 0.06 0.05 0.05 0.05 0.04 0.03 0.04 0.05 0.08 0.14 0.19 0.24 0.30 0.37 0.42 0.47 0.46 0.43 0.43 0.43 0.42 0.43 0.46 0.48 0.47 0.44 0.39 0.45 0.36 0.30 0.42 0.57 0.63 0.66 0.68 0.73 0.70 0.66 0.71 0.72 0.72 0.72 0.66 0.60 0.56 0.50 0.47
0.18 0.15 0.14 0.16 0.18 0.17 0.17 0.19 0.19 0.14 0.13 0.13 0.11 0.10 0.09 0.12 0.16 0.20 0.24 0.28 0.34 0.40 0.45 0.47 0.47 0.48 0.48 0.50 0.49 0.47 0.51 0.52 0.57 0.54 0.49 0.62 0.70 0.70 0.70 0.73 0.76 0.78 0.75 0.65 0.58 0.55 0.51 0.50 0.48 0.46 0.46 0.47 0.45 0.43
0.30 0.24 0.14 0.18 0.27 0.32 0.32 0.31 0.27 0.23 0.24 0.19 0.19 0.18 0.16 0.14 0.14 0.16 0.19 0.24 0.30 0.34 0.39 0.41 0.37 0.39 0.42 0.43 0.48 0.55 0.56 0.57 0.63 0.66 0.68 0.71 0.71 0.62 0.60 0.66 0.69 0.69 0.70 0.65 0.56 0.53 0.52 0.55 0.59 0.57 0.55 0.52 0.46 0.41
0.47 0.38 0.31 0.28 0.34 0.39 0.36 0.33 0.44 0.42 0.33 0.26 0.21 0.17 0.14 0.11 0.10 0.11 0.14 0.18 0.24 0.30 0.33 0.38 0.42 0.45 0.48 0.50 0.54 0.61 0.65 0.67 0.66 0.72 0.87 0.86 0.78 0.73 0.71 0.68 0.62 0.60 0.58 0.57 0.57 0.63 0.66 0.64 0.60 0.56 0.55 0.50 0.44 0.41